Albany, NY

12:41 PM EST on December 05, 2019 (GMT -0500)
Albany International

Weather History for KALB - October, 2019

Change the Weather History Date:

Wednesday, October 16, 2019

  Actual Average Record
Temperature  
Mean Temperature 51 °F 50 °F  
Max Temperature 63 °F 60 °F 88 °F (1947)
Min Temperature 38 °F 39 °F 25 °F (1978)
Degree Days  
Heating Degree Days 14 16  
Month to date heating degree days 166 206  
Since 1 July heating degree days 243 373  
Cooling Degree Days 0 0  
Month to date cooling degree days 4 0  
Year to date cooling degree days 771 594  
Moisture  
Dew Point 44 °F    
Average Humidity 74    
Maximum Humidity 92    
Minimum Humidity 56    
Precipitation  
Precipitation 1.60 in 0.12 in 1.80 in (1955)
Month to date precipitation 3.71 1.95  
Year to date precipitation 34.92 31.40  
Snow  
Snow 0.00 in 0.00 in T in (2009)
Month to date snowfall 0.0 0.1  
Since 1 July snowfall 0.0 0.1  
Since 1 September snowfall 0.0 0.1  
Snow Depth 0.00 in    
Sea Level Pressure  
Sea Level Pressure 29.74 in    
Wind  
Wind Speed 8 mph (SE)    
Max Wind Speed 20 mph    
Max Gust Speed 25 mph    
Visibility 9 miles    
Events Fog , Rain    
T = Trace of Precipitation, MM = Missing Value Source: NWS Daily Summary

Daily Weather History Graph

Daily Weather History Graph

Search for Another Location

Airport or City:

Astronomy

Oct. 16, 2019 Rise Set
Actual Time 7:09 AM EDT 6:11 PM EDT
Civil Twilight 6:40 AM EDT 6:40 PM EDT
Nautical Twilight 6:08 AM EDT 7:12 PM EDT
Astronomical Twilight 5:35 AM EDT 7:45 PM EDT
Moon 8:00 PM EDT (10/16) 9:39 AM EDT (10/16)
Length of Visible Light 11h 59m
Length of Day
11h 02m
Waning Gibbous, 93% of the Moon is Illuminated
Oct 16
Waning Gibbous
Oct 21
Last Quarter
Oct 27
New
Nov 4
First Quarter
Nov 12
Full

Hourly Weather History & Observations

Time (EDT) Temp. Windchill Dew Point Humidity Pressure Visibility Wind Dir Wind Speed Gust Speed Precip Events Conditions
12:51 AM 42.1 °F - 37.0 °F 82% 30.05 in 10.0 mi Calm Calm - N/A   Partly Cloudy
1:51 AM 39.9 °F 37.8 °F 37.0 °F 89% 30.06 in 10.0 mi SSE 3.5 mph - N/A   Partly Cloudy
2:51 AM 44.1 °F 41.5 °F 35.1 °F 71% 30.04 in 10.0 mi South 4.6 mph - N/A   Partly Cloudy
3:51 AM 42.1 °F 39.2 °F 35.1 °F 76% 30.01 in 10.0 mi SW 4.6 mph - N/A   Clear
4:51 AM 42.1 °F 40.2 °F 35.1 °F 76% 29.99 in 10.0 mi South 3.5 mph - N/A   Clear
5:51 AM 41.0 °F - 35.1 °F 79% 29.99 in 10.0 mi Calm Calm - N/A   Clear
6:51 AM 39.0 °F 36.8 °F 34.0 °F 82% 29.97 in 10.0 mi NW 3.5 mph - N/A Fog Patches of Fog
7:51 AM 51.1 °F - 42.1 °F 71% 29.94 in 10.0 mi SSE 8.1 mph - N/A Fog Patches of Fog
8:51 AM 53.1 °F - 42.1 °F 66% 29.91 in 10.0 mi SSE 15.0 mph 23.0 mph N/A   Mostly Cloudy
9:51 AM 55.0 °F - 43.0 °F 64% 29.90 in 10.0 mi South 11.5 mph - N/A   Mostly Cloudy
10:51 AM 55.9 °F - 44.1 °F 64% 29.88 in 10.0 mi South 8.1 mph - N/A   Mostly Cloudy
11:51 AM 57.9 °F - 45.0 °F 62% 29.85 in 10.0 mi South 6.9 mph - N/A   Overcast
12:51 PM 62.1 °F - 46.0 °F 56% 29.80 in 10.0 mi SSE 9.2 mph - N/A   Mostly Cloudy
1:51 PM 62.1 °F - 46.9 °F 58% 29.78 in 10.0 mi SSE 15.0 mph 20.7 mph N/A   Overcast
2:51 PM 61.0 °F - 46.9 °F 60% 29.76 in 10.0 mi SSE 5.8 mph 17.3 mph N/A   Overcast
3:51 PM 60.1 °F - 46.9 °F 62% 29.70 in 10.0 mi ESE 10.4 mph 17.3 mph 0.00 in Rain Light Rain
4:51 PM 57.9 °F - 48.9 °F 72% 29.66 in 10.0 mi Variable 5.8 mph - 0.03 in Rain Light Rain
5:51 PM 55.9 °F - 48.9 °F 77% 29.62 in 9.0 mi ESE 6.9 mph - 0.07 in Rain Light Rain
6:51 PM 55.0 °F - 50.0 °F 83% 29.58 in 10.0 mi ESE 3.5 mph - 0.07 in Rain Light Rain
7:51 PM 55.0 °F - 51.1 °F 86% 29.54 in 9.0 mi NE 3.5 mph - 0.07 in Rain Light Rain
8:51 PM 53.1 °F - 48.9 °F 86% 29.48 in 7.0 mi NNE 9.2 mph - 0.15 in Rain Rain
9:51 PM 53.1 °F - 48.9 °F 86% 29.38 in 10.0 mi North 15.0 mph - 0.13 in Rain Light Rain
10:18 PM 52.0 °F - 48.9 °F 89% 29.36 in 3.0 mi North 13.8 mph - 0.09 in Rain Heavy Rain
10:29 PM 52.0 °F - 48.9 °F 89% 29.34 in 4.0 mi NNW 13.8 mph - 0.18 in Rain Heavy Rain
10:35 PM 52.0 °F - 48.9 °F 89% 29.33 in 4.0 mi NNW 16.1 mph - 0.23 in Rain Heavy Rain
10:51 PM 52.0 °F - 48.0 °F 86% 29.34 in 4.0 mi NNW 13.8 mph - 0.32 in Rain Heavy Rain
11:51 PM 52.0 °F - 48.0 °F 86% 29.30 in 4.0 mi NNW 17.3 mph - 0.48 in Rain Rain